Location: �quirre
(50.4736°N, 2.2351°E)
Time: 01:34:21
(UTC+00:00)

Daily predictions for brighter satellites

Satellite Brightness Start Highest point End
(mag) Time Altitude Azimuth Time Altitude Azimuth Time Altitude Azimuth
GENESIS II 4.3 00:03:30 10° NW 00:07:31 74° NE 00:07:31 74° NE
Cosmos 2333 4.2 00:03:16 10° NNW 00:09:02 68° WSW 00:10:14 53° S
Cosmos 2219 Rocket 2.1 00:03:52 10° NNW 00:09:36 90° NNE 00:11:13 49° SSE
Cosmos 1464 Rocket 4.2 00:08:47 43° SSE 00:10:42 62° E 00:16:51 10° NNE
Cosmos 836 Rocket 4.4 00:05:34 10° NNW 00:10:46 71° WSW 00:11:32 61° SSW
Lacrosse 4 Rocket 1.5 00:13:01 63° E 00:13:01 63° E 00:16:58 10° NE
Cosmos 1782 Rocket 3.6 00:12:54 63° ESE 00:13:05 64° E 00:17:24 10° NNE
Cosmos 2233 Rocket 4.4 00:10:46 37° SW 00:13:06 57° WNW 00:19:21 10° N
FALCON 9 DEB 3.9 00:15:49 51° NNE 00:15:49 51° NNE 00:18:49 10° ENE
Cosmos 2322 Rocket 3.8 00:13:14 10° NW 00:17:11 20° W 00:17:43 19° WSW
Cosmos 1354 Rocket 4.4 00:16:38 45° SE 00:17:28 50° ESE 00:22:36 10° NNE
SL-4 R/B 4.0 00:22:19 15° E 00:22:19 15° E 00:22:57 10° E
Cosmos 968 Rocket 3.3 00:19:13 62° S 00:20:04 83° ESE 00:25:14 10° NNE
Landsat 4 3.8 00:16:34 10° NNE 00:20:07 73° NE 00:20:07 73° NE
SL-16 R/B 4.3 00:16:00 10° NNW 00:20:38 25° NE 00:25:15 10° E
Cosmos 1908 Rocket 3.7 00:21:10 60° WSW 00:21:31 62° WNW 00:25:54 10° N
COSMOS 2428 2.6 00:21:59 10° NNW 00:27:43 76° WSW 00:29:11 51° S
Nadezhda 4 Rocket 4.0 00:26:33 10° N 00:32:55 78° E 00:35:18 41° SSE
Cosmos 2360 Rocket 3.4 00:28:27 10° NW 00:33:04 26° WSW 00:33:24 26° WSW
SL-16 R/B 3.5 00:28:36 17° SE 00:33:06 44° ENE 00:39:00 10° N
CENTAUR R/B 3.6 00:27:38 10° WSW 00:33:47 47° NNW 00:41:03 10° NE
CZ-2D R/B 3.7 00:31:25 10° NE 00:35:56 25° E 00:38:05 20° SE
Cosmos 2034 Rocket 4.1 00:35:41 43° SSE 00:37:49 71° E 00:44:07 10° NNE
USA 267 4.0 00:33:14 10° E 00:39:35 55° N 00:45:56 10° WNW
Cosmos 1513 Rocket 4.5 00:37:32 45° SSW 00:39:43 83° W 00:46:12 10° N
Cosmos 1072 Rocket 4.4 00:39:08 46° SSW 00:41:06 78° W 00:47:15 10° N
Cosmos 1743 4.1 00:41:15 29° WNW 00:41:28 29° WNW 00:44:56 10° N
GEOS 3 Rocket 4.0 00:36:36 10° NE 00:41:49 48° SE 00:42:46 43° SSE
Okean 2 Rocket 3.5 00:41:46 47° SE 00:42:25 52° E 00:46:47 10° NNE
Cosmos 1271 Rocket 4.4 00:39:43 10° NW 00:42:07 22° WNW 00:42:07 22° WNW
Meteor 2-9 Rocket 4.1 00:41:29 51° SSW 00:42:58 82° WNW 00:48:42 10° N
ADEOS II 4.5 00:41:50 10° ENE 00:44:03 13° E 00:46:15 10° ESE
Cosmos 1092 Rocket 4.3 00:38:45 10° N 00:45:00 63° ENE 00:48:01 31° SSE
Cosmos 1544 4.0 00:45:29 40° WNW 00:45:29 40° WNW 00:48:48 10° N
Cosmos 1975 Rocket 3.3 00:40:57 10° NNW 00:45:21 54° W 00:45:36 53° WSW
Cosmos 1975 3.1 00:45:31 53° W 00:45:38 54° WNW 00:49:36 10° N
Cosmos 1980 3.9 00:41:05 10° NNW 00:46:47 71° ENE 00:49:51 28° SE
Cosmos 2297 Rocket 3.5 00:45:36 24° SE 00:47:12 28° ESE 00:51:55 10° NE
Cosmos 2219 4.3 00:45:50 28° SE 00:47:19 32° ESE 00:52:14 10° NE
Cosmos 2333 Rocket 2.5 00:41:51 10° NW 00:47:21 46° WSW 00:48:12 43° SW
PSLV R/B 3.9 00:42:59 10° N 00:47:34 67° WNW 00:48:26 54° SW
COSMOS 2487 4.0 00:48:08 26° WNW 00:48:17 26° WNW 00:51:16 10° N
Helios 1B rocket 2.2 00:44:27 10° NNE 00:48:34 88° W 00:48:49 78° SSW
Sich 1 Rocket 3.4 00:48:43 71° SSW 00:49:12 89° W 00:53:38 10° N
Meteor 1-29 3.3 00:49:03 10° NNE 00:52:12 61° ENE 00:52:12 61° ENE
Cosmos 44 Rocket 3.3 00:49:18 10° NW 00:54:15 68° SW 00:55:08 56° S
Cosmos 783 Rocket 4.5 00:49:13 10° NNW 00:54:25 65° WSW 00:55:27 53° SSW
Cosmos 2237 Rocket 2.2 00:51:09 10° NNW 00:56:51 78° ENE 00:59:51 29° SE
Cosmos 1503 Rocket 4.1 00:56:39 47° SW 00:58:12 74° WNW 01:03:37 10° NNE
Cosmos 1300 Rocket 3.5 00:57:53 60° SSE 00:58:28 69° E 01:02:47 10° NNE
DELTA 2 DEB (DPAF) 4.3 01:00:27 43° SE 01:01:47 67° ENE 01:06:13 10° N
CZ-4 R/B 4.3 00:59:33 10° N 01:04:25 55° WNW 01:05:48 41° WSW
CZ-4C R/B 4.0 01:04:19 36° ESE 01:05:01 41° ENE 01:08:23 10° N
Spot 1 3.9 01:06:48 59° SSE 01:07:34 85° ENE 01:11:41 10° NNW
Cosmos 2151 Rocket 3.6 01:12:29 55° SSE 01:13:23 75° E 01:17:48 10° NNE
Meteor 1-12 Rocket 4.3 01:11:28 41° S 01:13:42 88° E 01:19:45 10° NNE
Timation 2 Rocket 3.9 01:14:34 40° SSW 01:16:55 73° ESE 01:22:57 10° NE
Cosmos 1707 3.1 01:13:19 10° NNW 01:17:05 49° W 01:17:05 49° W
In-Cosmos 22 4.1 01:11:32 10° NNW 01:17:12 80° W 01:19:15 40° S
Cosmos 1805 4.3 01:24:26 31° SE 01:25:29 38° E 01:29:07 10° NNE
DNEPR-1 R/B 4.1 01:19:53 10° NW 01:26:02 80° NE 01:30:58 10° SE
ERBS 2.5 01:23:01 10° NW 01:26:19 67° NNE 01:29:35 10° ESE
SJ 16-02 3.2 01:25:10 17° SE 01:27:00 22° E 01:30:26 10° NE
Meteor 2-13 Rocket 4.4 01:25:19 10° NNW 01:31:24 72° W 01:34:11 34° S
Cosmos 1538 Rocket 3.9 01:28:42 10° NNW 01:33:52 69° WSW 01:35:51 37° S
Cosmos 2195 Rocket 4.5 01:27:44 10° NNW 01:34:01 71° W 01:37:03 33° S
Cosmos 1025 Rocket 3.5 01:31:39 10° NNW 01:35:42 41° W 01:36:08 40° WSW
Cosmos 2227 Rocket 2.6 01:33:34 32° S 01:35:58 54° ESE 01:41:29 10° NE
Resurs 1-4 Rocket 2.1 01:31:48 10° NNE 01:37:07 74° ESE 01:39:24 35° S
MOZ.5/SAFIR/RUBIN 5/SL-8 4.0 01:36:59 43° SSW 01:38:09 54° W 01:42:50 10° NNW
Cosmos 1674 2.5 01:35:23 10° N 01:39:07 87° W 01:39:47 59° S
SL-19 R/B 4.5 01:34:44 10° NNE 01:40:45 68° WNW 01:43:22 33° SW
NOSS 0 Rocket 4.5 01:37:11 10° NW 01:42:54 39° WSW 01:44:40 32° SW
Cosmos 1733 4.1 01:42:54 30° SE 01:44:15 42° E 01:47:54 10° NNE
Cosmos 1437 4.4 01:41:56 10° NW 01:43:28 21° WNW 01:43:28 21° WNW
ATLAS 3B R/B 3.7 01:40:56 10° W 01:47:01 40° NNW 01:53:18 10° NE
Cosmos 1536 Rocket 4.1 01:43:42 10° NNW 01:47:47 40° W 01:48:26 37° WSW
Cosmos 2026 Rocket 4.0 01:42:05 10° NNW 01:48:05 65° W 01:51:09 30° SSW
USA 215 3.8 01:42:09 10° ENE 01:48:21 43° SE 01:51:29 27° S
Cosmos 2279 Rocket 4.2 01:44:46 25° S 01:48:29 69° E 01:54:39 10° NNE
COBE Rocket 4.0 01:47:33 21° SSE 01:50:37 70° ENE 01:55:16 10° N
Lacrosse 4 Rocket 3.3 01:49:19 14° W 01:51:50 23° NW 01:55:14 10° NNE
FALCON 9 DEB 3.4 01:49:10 10° WNW 01:52:39 70° NNE 01:56:08 10° E
Cosmos 2219 Rocket 3.8 01:49:13 10° WNW 01:52:46 17° W 01:52:54 17° W
Cosmos 1634 Rocket 4.0 01:50:26 31° SSW 01:53:38 74° WNW 01:59:54 10° N
Cosmos 2344 4.4 01:44:54 10° NW 01:54:14 64° SW 02:07:12 10° SSE
Cosmos 2082 4.4 01:53:29 24° S 01:56:34 46° ESE 02:01:54 10° NE
SL-4 R/B 1.4 01:58:02 40° W 01:59:05 67° SSW 02:02:28 10° ESE
Cosmos 2112 Rocket 4.4 01:54:08 10° NNW 01:59:22 65° ENE 02:04:32 10° SE
Meteor 1-24 Rocket 3.7 01:58:58 10° N 02:04:32 82° ENE 02:08:55 16° SSE
SL-16 R/B 2.1 01:59:45 10° NNW 02:05:30 85° WSW 02:11:11 10° SSE
CBERS-1 4.3 02:00:51 10° NNE 02:05:56 61° ESE 02:09:09 22° S
Meteor 2-5 Rocket 3.6 02:02:34 10° NNW 02:08:14 74° W 02:11:59 21° S
ARIANE 5 R/B 3.8 02:08:28 10° NNE 02:13:18 36° E 02:18:02 10° SSE
NPP 3.7 02:09:58 10° N 02:15:21 69° WNW 02:18:23 26° SSW
Cosmos 1898 Rocket 4.5 02:11:41 17° SSE 02:15:22 41° ESE 02:20:16 10° NE
H-2A R/B 4.4 02:12:13 10° ESE 02:15:29 23° ENE 02:18:44 10° N
IDEFIX/ARIANE 42P 4.3 02:11:41 10° NE 02:16:03 27° E 02:20:25 10° SSE
CZ-2D R/B 2.4 02:10:57 10° N 02:16:21 59° WNW 02:19:24 26° SW
SL-16 R/B 3.0 02:13:43 25° SSW 02:16:45 41° W 02:22:40 10° NNW
Cosmos 1680 Rocket 3.4 02:11:56 10° NNW 02:17:12 83° WSW 02:22:25 10° SSE
GEOS 3 Rocket 4.4 02:14:40 10° NE 02:19:53 49° NW 02:23:51 17° WSW
NOSS 3-1 (C) 4.4 02:17:24 16° S 02:21:05 34° ESE 02:26:41 10° NE
AQUA 3.9 02:17:06 10° N 02:21:52 68° WNW 02:24:26 27° SSW
USA 267 3.2 02:15:50 10° ESE 02:22:24 88° SSW 02:28:59 10° WNW
Cosmos 1607 4.0 02:17:48 10° NW 02:24:10 65° WSW 02:30:33 10° SSE
ADEOS II 2.2 02:19:21 10° NNE 02:24:39 77° ESE 02:28:24 20° S
Cosmos 990 Rocket 4.5 02:23:20 18° S 02:27:00 54° ESE 02:32:03 10° NNE
Cosmos 1766 3.5 02:26:32 31° SW 02:28:07 52° WNW 02:31:57 10° N
IRS-1D 3.5 02:23:27 10° NNE 02:28:29 86° WNW 02:31:54 22° SSW
Cosmos 2263 Rocket 4.1 02:25:21 10° SSE 02:29:37 23° ESE 02:33:52 10° NE
Meteor 1-22 Rocket 4.0 02:27:11 21° SSW 02:30:45 87° WNW 02:36:06 10° NNE
Cosmos 2297 Rocket 2.5 02:27:24 23° SW 02:30:53 59° NW 02:36:31 10° NNE
Okean 1-7 Rocket 3.5 02:26:44 10° N 02:31:11 88° W 02:35:04 13° S
Cosmos 2219 3.6 02:27:45 22° WSW 02:31:15 51° NW 02:36:46 10° NNE
IRS-1C 4.4 02:28:53 10° NNE 02:34:14 68° ESE 02:38:43 15° S
Uosat 12 SS-18 rocket 4.5 02:33:34 22° WSW 02:36:38 60° NW 02:41:01 10° NE
Cosmos 1626 2.5 02:33:42 10° NNW 02:37:16 45° W 02:38:56 26° SSW
Cosmos 2266 Rocket 4.0 02:31:40 10° NNW 02:38:04 81° W 02:44:21 10° S
Cosmos 1655 Rocket 4.1 02:32:42 10° NNW 02:38:55 63° W 02:44:28 13° S
Meteor 1-28 Rocket 3.2 02:36:22 11° SSE 02:39:56 88° ENE 02:43:47 10° NNW
Okean 1 Rocket 4.0 02:38:14 22° WSW 02:40:14 33° WNW 02:44:12 10° N
Cosmos 2237 Rocket 3.5 02:36:15 10° NW 02:40:16 20° W 02:41:37 19° WSW
CZ-4B R/B 3.5 02:37:03 10° N 02:41:47 59° WNW 02:44:51 21° SW
Cosmos 1470 2.9 02:41:43 18° S 02:44:38 77° E 02:48:38 10° NNE
Cosmos 1603 4.3 02:39:16 10° NNW 02:44:59 63° ENE 02:50:39 10° SE
SL-08 R/B 3.4 02:44:25 10° S 02:49:20 70° WSW 02:54:18 10° NNW
Cosmos 2098 Rocket 3.6 02:48:33 10° NNW 02:53:08 61° W 02:58:52 10° S
USA 229 DEB 4.2 02:48:34 14° SSW 02:54:05 52° ESE 03:00:43 10° NE
USA 229 4.2 02:48:40 14° SSW 02:54:09 51° ESE 03:00:46 10° NE
Cosmos 158 Rocket 4.4 02:49:54 10° NW 02:54:57 43° WSW 03:00:00 10° S
SL-14 R/B 4.3 02:58:17 10° NNW 03:01:42 29° W 03:03:48 18° SW
ERBS 3.5 02:59:46 10° W 03:03:33 17° SSW 03:04:49 10° S
NOSS 3-1 (A) 4.2 03:00:07 10° S 03:05:16 42° ESE 03:11:13 10° NE
SJ 16-02 1.8 03:02:10 17° SW 03:05:18 48° WNW 03:09:36 10° NNE
CSL-04 DEB 4.3 03:06:52 10° SSE 03:10:47 89° WSW 03:14:44 10° NNW
Cosmos 1809 Rocket 4.4 03:06:04 10° NNW 03:12:09 71° W 03:18:13 10° S
Cosmos 1943 3.3 03:06:37 10° NNW 03:12:17 80° ENE 03:17:54 10° SSE
MSX 4.5 03:06:38 10° NNE 03:12:18 55° E 03:17:57 10° S
IRS-P3 4.3 03:07:48 10° N 03:13:04 58° WNW 03:17:57 12° SW
Cosmos 1626 Rocket 3.5 03:09:11 10° NNW 03:13:31 70° W 03:17:48 10° S
Cosmos 1455 Rocket 3.5 03:11:32 14° SW 03:15:02 46° WNW 03:19:21 10° N
Resurs 1-4 Rocket 3.7 03:12:30 10° N 03:16:25 22° WNW 03:20:20 10° WSW
Cosmos 1758 3.5 03:13:24 13° SSW 03:16:58 59° WNW 03:20:58 10° N
Spot 4 Rocket 4.1 03:11:48 10° NNE 03:17:00 85° ESE 03:22:10 10° SSW
Meteor 1-21 Rocket 4.2 03:11:39 10° NNW 03:17:15 83° W 03:22:47 10° S
Cosmos 2227 Rocket 3.2 03:15:24 11° WSW 03:20:17 34° NW 03:25:27 10° NNE
SeaSat 1 3.5 03:16:38 10° NE 03:21:20 41° ESE 03:25:59 10° S
CZ-2C R/B 3.0 03:21:14 10° NNE 03:25:09 70° ESE 03:28:58 10° S
Landsat 5 3.3 03:21:37 10° SSE 03:25:31 85° WSW 03:29:35 10° NNW
CZ-2D R/B 3.4 03:22:41 10° N 03:26:47 72° WNW 03:30:45 10° SSW
Cosmos 1461 3.1 03:23:26 13° SW 03:27:23 72° NW 03:32:01 10° NE
FALCON 9 DEB 3.7 03:26:20 10° WNW 03:29:34 36° SW 03:32:46 10° SE
Cosmos 1758 Rocket 3.8 03:27:09 10° N 03:31:29 71° ENE 03:35:47 10° SSE
USA 215 3.4 03:25:09 10° ENE 03:31:43 80° NNW 03:38:16 10° WSW
ATLAS CENTAUR R/B 4.0 03:31:04 10° SE 03:33:05 13° ESE 03:35:02 10° E
Cosmos 1340 Rocket 3.4 03:29:56 11° SW 03:33:35 40° WNW 03:37:22 10° N
Cosmos 724 4.5 03:29:16 10° NW 03:35:06 54° WSW 03:41:01 10° SSE
ERS-2 2.1 03:33:09 10° S 03:36:46 70° WSW 03:40:27 10° NNW
Cosmos 2228 4.3 03:33:48 10° SSE 03:37:56 43° E 03:42:06 10° NNE
SL-4 R/B 3.1 03:35:49 10° W 03:38:09 17° SW 03:40:29 10° S
Cosmos 1953 2.4 03:35:55 10° SSW 03:39:53 64° WNW 03:43:56 10° N
Cosmos 1726 2.4 03:39:14 10° SSW 03:42:49 50° WNW 03:46:25 10° N
Cosmos 1908 3.5 03:41:08 10° S 03:45:00 72° E 03:48:57 10° NNE
Meteor 1-16 Rocket 4.2 03:40:49 10° S 03:46:12 88° E 03:51:45 10° NNE
SL-16 R/B 3.7 03:45:27 10° WNW 03:48:45 16° W 03:52:02 10° SW
H-2A R/B 2.3 03:47:20 10° S 03:51:15 42° W 03:55:11 10° NNW
ARIANE 5 R/B 3.3 03:47:36 10° N 03:52:25 39° WNW 03:57:14 10° SW
Cosmos 2150 Rocket 4.5 03:47:36 10° S 03:52:41 64° ESE 03:57:52 10° NNE
Cosmos 1937 Rocket 4.0 03:47:46 10° SW 03:52:55 49° WNW 03:58:07 10° NNE
Cosmos 1825 Rocket 3.5 03:49:42 10° N 03:54:05 86° W 03:58:24 10° S
CZ-2D R/B 4.3 03:52:56 10° NNW 03:55:20 13° NW 03:57:45 10° WNW
IDEFIX/ARIANE 42P 2.9 03:50:53 10° N 03:55:56 51° WNW 04:00:57 10° SW
